Fort Stockton, TX

9:30 PM CDT on June 24, 2017 (GMT -0500)
Fort Stockton-Pecos County

Weather History for KFST - October, 2014

Change the Weather History Date:

Thursday, October 30, 2014

  Actual Average Record
Temperature  
Mean Temperature 70 °F -  
Max Temperature 84 °F 71 °F 88 °F (2010)
Min Temperature 57 °F 49 °F 46 °F (2002)
Cooling Degree Days 4    
Growing Degree Days 20 (Base 50)    
Moisture  
Dew Point 48 °F    
Average Humidity 55    
Maximum Humidity 93    
Minimum Humidity 15    
Precipitation  
Precipitation 0.00 in - - ()
Sea Level Pressure  
Sea Level Pressure 30.04 in    
Wind  
Wind Speed 8 mph (West)    
Max Wind Speed 15 mph    
Max Gust Speed 18 mph    
Visibility 10 miles    
Events      
Averages and records for this station are not official NWS values.
T = Trace of Precipitation, MM = Missing Value Source: NWS Daily Summary

Daily Weather History Graph

Daily Weather History Graph

Search for Another Location

Airport or City:

Trip Planner

Search our weather history database for the weather conditions in past years. The results will help you decide how hot, cold, wet, or windy it might be!

Date:

Astronomy

Oct. 30, 2014 Rise Set
Actual Time 8:05 AM CDT 7:04 PM CDT
Civil Twilight 7:40 AM CDT 7:29 PM CDT
Nautical Twilight 7:11 AM CDT 7:58 PM CDT
Astronomical Twilight 6:43 AM CDT 8:26 PM CDT
Moon 2:08 PM CDT (10/30) 12:22 AM CDT (10/30)
Length of Visible Light 11h 49m
Length of Day
10h 59m
Waxing Crescent, 45% of the Moon is Illuminated
Oct 30
Waxing Crescent
Oct 30
First Quarter
Nov 6
Full
Nov 14
Last Quarter
Nov 22
New

Hourly Weather History & Observations

Time (CDT) Temp. Heat Index Dew Point Humidity Pressure Visibility Wind Dir Wind Speed Gust Speed Precip Events Conditions
12:53 AM 61.0 °F - 55.0 °F 81% 30.04 in 10.0 mi South 8.1 mph - N/A   Clear
1:53 AM 62.1 °F - 57.0 °F 84% 30.03 in 10.0 mi SSW 8.1 mph - N/A   Clear
2:53 AM 61.0 °F - 57.0 °F 87% 30.01 in 10.0 mi SSW 8.1 mph - N/A   Clear
3:53 AM 60.1 °F - 57.0 °F 90% 30.01 in 10.0 mi SSW 6.9 mph - N/A   Clear
4:53 AM 59.0 °F - 57.0 °F 93% 30.01 in 10.0 mi SSW 6.9 mph - N/A   Clear
5:53 AM 57.9 °F - 55.0 °F 90% 30.01 in 10.0 mi SSW 8.1 mph - N/A   Clear
6:53 AM 57.0 °F - 54.0 °F 89% 30.03 in 10.0 mi SW 5.8 mph - N/A   Clear
7:53 AM 57.0 °F - 54.0 °F 89% 30.04 in 10.0 mi SSW 9.2 mph - N/A   Clear
8:53 AM 59.0 °F - 54.0 °F 83% 30.05 in 10.0 mi SSW 10.4 mph - N/A   Clear
9:53 AM 66.0 °F - 55.0 °F 68% 30.06 in 10.0 mi SW 6.9 mph - N/A   Clear
10:53 AM 72.0 °F - 54.0 °F 53% 30.06 in 10.0 mi WNW 5.8 mph - N/A   Clear
11:53 AM 75.0 °F - 55.0 °F 50% 30.06 in 10.0 mi Calm Calm - N/A   Clear
12:53 PM 81.0 °F 80.5 °F 54.0 °F 39% 30.04 in 10.0 mi North 6.9 mph - N/A   Clear
1:53 PM 81.0 °F - 52.0 °F 36% 30.03 in 10.0 mi North 10.4 mph 18.4 mph N/A   Clear
2:53 PM 82.0 °F - 48.9 °F 31% 30.01 in 10.0 mi NNW 12.7 mph - N/A   Clear
3:53 PM 82.9 °F - 44.1 °F 25% 30.00 in 10.0 mi North 11.5 mph - N/A   Clear
4:53 PM 82.9 °F - 39.0 °F 21% 30.00 in 10.0 mi North 15.0 mph - N/A   Clear
5:53 PM 82.0 °F - 30.0 °F 15% 30.00 in 10.0 mi NNW 12.7 mph - N/A   Clear
6:53 PM 75.9 °F - 33.1 °F 21% 30.02 in 10.0 mi NW 6.9 mph - N/A   Clear
7:53 PM 69.1 °F - 34.0 °F 27% 30.05 in 10.0 mi West 8.1 mph - N/A   Clear
8:53 PM 68.0 °F - 34.0 °F 28% 30.07 in 10.0 mi WNW 8.1 mph - N/A   Clear
9:53 PM 66.0 °F - 36.0 °F 33% 30.09 in 10.0 mi NW 5.8 mph - N/A   Clear
10:53 PM 63.0 °F - 37.9 °F 40% 30.10 in 10.0 mi North 5.8 mph - N/A   Clear
11:53 PM 61.0 °F - 39.9 °F 46% 30.12 in 10.0 mi NNW 3.5 mph - N/A   Clear